TimeEST,TemperatureF,Dew PointF,Humidity,Sea Level PressureIn,VisibilityMPH,Wind Direction,Wind SpeedMPH,Gust SpeedMPH,PrecipitationIn,Events,Conditions,WindDirDegrees,DateUTC
12:53 AM,25.0,19.0,78,29.73,10.0,Calm,Calm,-,N/A,,Clear,0,2013-02-14 05:53:00
1:53 AM,25.0,18.0,75,29.77,10.0,South,5.8,-,N/A,,Mostly Cloudy,170,2013-02-14 06:53:00
2:53 AM,25.0,18.0,75,29.78,10.0,Calm,Calm,-,N/A,,Overcast,0,2013-02-14 07:53:00
3:53 AM,26.1,19.0,75,29.78,10.0,Calm,Calm,-,N/A,,Overcast,0,2013-02-14 08:53:00
4:53 AM,25.0,19.0,78,29.80,10.0,Calm,Calm,-,N/A,,Overcast,0,2013-02-14 09:53:00
5:53 AM,25.0,19.0,78,29.82,10.0,Calm,Calm,-,N/A,,Overcast,0,2013-02-14 10:53:00
6:53 AM,26.1,19.9,78,29.85,10.0,Calm,Calm,-,N/A,,Overcast,0,2013-02-14 11:53:00
7:53 AM,27.0,19.9,75,29.87,10.0,Calm,Calm,-,N/A,,Overcast,0,2013-02-14 12:53:00
8:53 AM,28.0,21.0,75,29.89,8.0,Calm,Calm,-,N/A,,Overcast,0,2013-02-14 13:53:00
9:53 AM,32.0,21.0,64,29.91,10.0,Calm,Calm,-,N/A,,Overcast,0,2013-02-14 14:53:00
10:53 AM,35.1,18.0,50,29.92,10.0,NW,6.9,-,N/A,,Overcast,320,2013-02-14 15:53:00
11:53 AM,36.0,18.0,48,29.91,10.0,North,5.8,-,N/A,,Overcast,350,2013-02-14 16:53:00
12:53 PM,37.9,17.1,43,29.89,10.0,Calm,Calm,-,N/A,,Overcast,0,2013-02-14 17:53:00
1:53 PM,37.9,18.0,45,29.89,10.0,NNW,6.9,-,N/A,,Partly Cloudy,330,2013-02-14 18:53:00
2:53 PM,37.9,18.0,45,29.90,10.0,Variable,5.8,-,N/A,,Scattered Clouds,0,2013-02-14 19:53:00
3:53 PM,37.9,18.0,45,29.91,10.0,NE,3.5,-,N/A,,Clear,50,2013-02-14 20:53:00
4:53 PM,35.1,19.9,54,29.93,10.0,Calm,Calm,-,N/A,,Clear,0,2013-02-14 21:53:00
5:53 PM,28.0,19.9,72,29.95,10.0,Calm,Calm,-,N/A,,Clear,0,2013-02-14 22:53:00
6:53 PM,26.1,19.9,78,29.97,10.0,Calm,Calm,-,N/A,,Clear,0,2013-02-14 23:53:00
7:53 PM,26.1,19.0,75,29.97,10.0,Calm,Calm,-,N/A,,Overcast,0,2013-02-15 00:53:00
8:53 PM,25.0,18.0,75,29.96,10.0,Calm,Calm,-,N/A,,Overcast,0,2013-02-15 01:53:00
9:53 PM,26.1,19.0,75,29.96,10.0,Calm,Calm,-,N/A,,Overcast,0,2013-02-15 02:53:00
10:53 PM,28.0,19.9,72,29.96,10.0,Calm,Calm,-,N/A,,Mostly Cloudy,0,2013-02-15 03:53:00
11:53 PM,25.0,18.0,75,29.96,10.0,NE,3.5,-,N/A,,Overcast,40,2013-02-15 04:53:00